User: anonymous   Login
Location: Hastringsfeld
(50.9620°N, 10.4787°E)
Time: 17:46:43
(UTC+00:00)
Language:

CZ-2D R/B - Orbit

View from above orbital plane
View from above orbital plane
View from above satellite
View from above satellite

Ground track
Ground track

The orbit data is extracted from the following two-line orbital elements,

1 37932U 11068C   24062.48506350  .00000204  00000-0  11045-3 0  9995
2 37932  98.7867   4.5186 0037432 150.0148 325.5196 14.22441124637555
Epoch (UTC): 02 March 2024 11:38:29
Eccentricity: 0.0037432
inclination: 98.7867°
perigee height: 790 km
apogee height: 844 km
right ascension of ascending node: 4.5186°
argument of perigee: 150.0148°
revolutions per day: 14.22441124
mean anomaly at epoch: 325.5196°
orbit number at epoch: 63755

The dashed part of the orbit path shows where the satellite is in the earth's shadow,  

DLR